Location: Praha
(50.0830°N, 14.4670°E)
Time: 21:30:47
(UTC+01:00)

Tiangong - Visible Passes

Search period start: 22 January 2022 00:00
Search period end: 01 February 2022 00:00
Orbit: 383 x 386 km, 41.5° (Epoch: 22 January)

Date Brightness Start Highest point End Pass type
(mag) Time Alt. Az. Time Alt. Az. Time Alt. Az.
29 Jan 3.7 19:02:17 10° SSW 19:03:14 13° S 19:03:14 13° S visible
30 Jan 3.6 18:03:20 10° S 18:04:30 12° SSE 18:05:39 10° SE visible
30 Jan 4.3 19:38:23 10° SW 19:38:29 10° SW 19:38:29 10° SW visible
31 Jan 3.2 18:38:48 10° SW 18:40:54 17° S 18:41:30 16° SSE visible
